Marrakech, Morocco

3:27 PM WEST on September 19, 2017 (GMT +0100)
Marrakech

Weather History for GMMX - December, 2013

Change the Weather History Date:

Sunday, December 29, 2013

  Actual Average Record
Temperature  
Mean Temperature 52 °F -  
Max Temperature 59 °F 63 °F 75 °F (2010)
Min Temperature 44 °F 42 °F 35 °F (2004)
Degree Days  
Heating Degree Days 12    
Growing Degree Days 2 (Base 50)    
Moisture  
Dew Point 40 °F    
Average Humidity 67    
Maximum Humidity 100    
Minimum Humidity 27    
Precipitation  
Precipitation 0.00 in 0.04 in - ()
Sea Level Pressure  
Sea Level Pressure 30.29 in    
Wind  
Wind Speed 11 mph ()    
Max Wind Speed 21 mph    
Max Gust Speed 32 mph    
Visibility 6.1 miles    
Events Rain    
Averages and records for this station are not official NWS values.
T = Trace of Precipitation, MM = Missing Value Source: Averaged Metar Reports

Daily Weather History Graph

Daily Weather History Graph

Search for Another Location

Airport or City:

Trip Planner

Search our weather history database for the weather conditions in past years. The results will help you decide how hot, cold, wet, or windy it might be!

Date:

Astronomy

Dec. 29, 2013 Rise Set
Actual Time 7:30 AM WET 5:37 PM WET
Civil Twilight 7:04 AM WET 6:04 PM WET
Nautical Twilight 6:33 AM WET 6:34 PM WET
Astronomical Twilight 6:04 AM WET 7:04 PM WET
Moon 4:05 AM WET (12/29) 2:59 PM WET (12/29)
Length of Visible Light 11h 00m
Length of Day
10h 06m
Waning Crescent, 12% of the Moon is Illuminated
Dec 29
Waning Crescent
Jan 1
New
Jan 8
First Quarter
Jan 16
Full
Jan 24
Last Quarter

Hourly Weather History & Observations

Time (WET) Temp. Windchill Dew Point Humidity Pressure Visibility Wind Dir Wind Speed Gust Speed Precip Events Conditions
12:00 AM 50 °F - 49 °F 93% 30.30 in 5 mi NE 10.4 mph - - Rain Light Rain
12:00 AM 50.0 °F - 48.2 °F 94% 30.27 in 5.0 mi NE 10.4 mph - N/A   Mostly Cloudy
12:30 AM 50.0 °F - 48.2 °F 94% 30.27 in 6.2 mi NE 13.8 mph - N/A Rain Light Rain
1:00 AM 48.2 °F - 48.2 °F 100% 30.27 in 4.3 mi NE 13.8 mph - N/A Rain Light Rain
1:30 AM 48.2 °F - 48.2 °F 100% 30.27 in 6.2 mi ENE 10.4 mph - N/A Rain Light Rain
2:00 AM 48.2 °F - 46.4 °F 93% 30.27 in 6.2 mi ENE 10.4 mph - N/A   Mostly Cloudy
2:30 AM 48.2 °F - 46.4 °F 93% 30.30 in 6.2 mi East 9.2 mph - N/A   Mostly Cloudy
3:00 AM 48 °F - 47 °F 96% 30.32 in 6 mi East 11.5 mph - -   Overcast
3:00 AM 48.2 °F - 46.4 °F 93% 30.30 in 6.2 mi East 11.5 mph - N/A   Mostly Cloudy
3:30 AM 48.2 °F - 46.4 °F 93% 30.30 in 6.2 mi East 12.7 mph - N/A   Mostly Cloudy
4:00 AM 48.2 °F - 44.6 °F 87% 30.30 in 6.2 mi East 15.0 mph - N/A   Mostly Cloudy
4:30 AM 48.2 °F - 44.6 °F 87% 30.30 in 6.2 mi East 9.2 mph - N/A   Mostly Cloudy
5:00 AM 48.2 °F - 44.6 °F 87% 30.27 in 6.2 mi East 9.2 mph - N/A   Mostly Cloudy
5:30 AM 48.2 °F - 44.6 °F 87% 30.27 in 6.2 mi East 9.2 mph - N/A   Mostly Cloudy
6:00 AM 48 °F - 42 °F 72% 30.32 in 6 mi ENE 9.2 mph - -   Clear
6:00 AM 48.2 °F - 42.8 °F 82% 30.27 in 6.2 mi ENE 9.2 mph - N/A   Mostly Cloudy
6:30 AM 48.2 °F - 42.8 °F 82% 30.27 in 6.2 mi ENE 9.2 mph - N/A   Scattered Clouds
7:00 AM 46.4 °F 42.4 °F 41.0 °F 81% 30.30 in 6.2 mi ENE 8.1 mph - N/A   Scattered Clouds
7:30 AM 46.4 °F 42.9 °F 41.0 °F 81% 30.30 in 6.2 mi NNE 6.9 mph - N/A   Scattered Clouds
8:00 AM 46.4 °F 41.9 °F 42.8 °F 87% 30.30 in 6.2 mi NNE 9.2 mph - N/A   Scattered Clouds
8:30 AM 48.2 °F - 39.2 °F 71% 30.30 in 6.2 mi NE 11.5 mph - N/A   Scattered Clouds
9:00 AM 48 °F - 40 °F 66% 30.33 in 6 mi ENE 11.5 mph - -   Scattered Clouds
9:00 AM 48.2 °F - 39.2 °F 71% 30.30 in 6.2 mi ENE 11.5 mph - N/A   Scattered Clouds
9:30 AM 50.0 °F - 42.8 °F 76% 30.30 in 6.2 mi East 9.2 mph - N/A   Scattered Clouds
10:00 AM 51.8 °F - 41.0 °F 67% 30.30 in 6.2 mi East 12.7 mph - N/A   Scattered Clouds
10:30 AM 51.8 °F - 41.0 °F 67% 30.30 in 6.2 mi East 13.8 mph - N/A   Scattered Clouds
11:00 AM 53.6 °F - 41.0 °F 62% 30.30 in 6.2 mi ENE 16.1 mph - N/A   Scattered Clouds
11:30 AM 53.6 °F - 39.2 °F 58% 30.30 in 6.2 mi ENE 19.6 mph 32.2 mph N/A   Scattered Clouds
12:00 PM 55 °F - 37 °F 39% 30.30 in 6 mi NE 18.4 mph - -   Scattered Clouds
12:00 PM 55.4 °F - 37.4 °F 51% 30.30 in 6.2 mi ENE 18.4 mph - N/A   Scattered Clouds
12:30 PM 55.4 °F - 37.4 °F 51% 30.27 in 6.2 mi ENE 20.7 mph - N/A   Scattered Clouds
1:00 PM 57.2 °F - 39.2 °F 51% 30.27 in 6.2 mi ENE 17.3 mph - N/A   Scattered Clouds
1:30 PM 57.2 °F - 37.4 °F 48% 30.27 in 6.2 mi ENE 16.1 mph - N/A   Scattered Clouds
2:00 PM 57.2 °F - 35.6 °F 44% 30.27 in 6.2 mi NE 15.0 mph - N/A   Scattered Clouds
2:30 PM 59.0 °F - 35.6 °F 42% 30.24 in 6.2 mi NE 15.0 mph - N/A   Scattered Clouds
3:00 PM 59 °F - 34 °F 27% 30.25 in 6 mi ENE 15.0 mph - -   Partly Cloudy
3:00 PM 59.0 °F - 33.8 °F 39% 30.24 in 6.2 mi ENE 16.1 mph - N/A   Scattered Clouds
3:30 PM 59.0 °F - 33.8 °F 39% 30.24 in 6.2 mi ENE 15.0 mph - N/A   Scattered Clouds
4:00 PM 59.0 °F - 35.6 °F 42% 30.27 in 6.2 mi ENE 13.8 mph - N/A   Scattered Clouds
4:30 PM 59.0 °F - 35.6 °F 42% 30.27 in 6.2 mi ENE 13.8 mph - N/A   Scattered Clouds
5:00 PM 59.0 °F - 35.6 °F 42% 30.27 in 6.2 mi NE 13.8 mph - N/A   Scattered Clouds
5:30 PM 57.2 °F - 35.6 °F 44% 30.27 in 6.2 mi NE 12.7 mph - N/A   Scattered Clouds
6:00 PM 56 °F - 34 °F 32% 30.29 in 6 mi ENE 10.4 mph - -   Scattered Clouds
6:00 PM 55.4 °F - 33.8 °F 44% 30.27 in 6.2 mi ENE 10.4 mph - N/A   Partly Cloudy
6:30 PM 53.6 °F - 33.8 °F 47% 30.30 in 6.2 mi ENE 9.2 mph - N/A   Partly Cloudy
7:00 PM 51.8 °F - 35.6 °F 54% 30.30 in 6.2 mi ENE 8.1 mph - N/A   Partly Cloudy
7:30 PM 51.8 °F - 35.6 °F 54% 30.30 in 6.2 mi ENE 6.9 mph - N/A   Partly Cloudy
8:00 PM 51.8 °F - 35.6 °F 54% 30.30 in 6.2 mi NE 6.9 mph - N/A   Partly Cloudy
8:30 PM 50.0 °F - 37.4 °F 62% 30.30 in 6.2 mi ENE 9.2 mph - N/A   Partly Cloudy
9:00 PM 49 °F - 39 °F 58% 30.33 in 6 mi ENE 12.7 mph - -   Scattered Clouds
9:00 PM 50.0 °F - 39.2 °F 66% 30.30 in 6.2 mi ENE 11.5 mph - N/A   Partly Cloudy
9:30 PM 48.2 °F - 39.2 °F 71% 30.30 in 6.2 mi East 10.4 mph - N/A   Partly Cloudy
10:00 PM 48.2 °F - 37.4 °F 66% 30.30 in 6.2 mi East 8.1 mph - N/A   Partly Cloudy
10:30 PM 46.4 °F 42.9 °F 39.2 °F 76% 30.30 in 6.2 mi East 6.9 mph - N/A   Partly Cloudy
11:00 PM 46.4 °F 42.4 °F 39.2 °F 76% 30.30 in 6.2 mi ESE 8.1 mph - N/A   Partly Cloudy
11:30 PM 44.6 °F 40.2 °F 39.2 °F 81% 30.30 in - East 8.1 mph - N/A   Clear